Bradford, PA

8:19 AM EDT on June 25, 2017 (GMT -0400)
Bradford Regional

Weather History for KBFD - November, 2013

Change the Weather History Date:

Wednesday, November 13, 2013

  Actual Average Record
Temperature  
Mean Temperature 25 °F 38 °F  
Max Temperature 30 °F 46 °F 65 °F (1989)
Min Temperature 20 °F 30 °F 13 °F (1983)
Degree Days  
Heating Degree Days 40 22  
Month to date heating degree days 361 264  
Since 1 July heating degree days 1190 1257  
Cooling Degree Days 0 0  
Month to date cooling degree days 0 0  
Year to date cooling degree days 334 193  
Moisture  
Dew Point 17 °F    
Average Humidity 71    
Maximum Humidity 88    
Minimum Humidity 53    
Precipitation  
Precipitation T in 0.12 in 0.79 in (1965)
Month to date precipitation 1.72 1.51  
Year to date precipitation 29.79 38.81  
Sea Level Pressure  
Sea Level Pressure 30.35 in    
Wind  
Wind Speed 8 mph (West)    
Max Wind Speed 16 mph    
Max Gust Speed 23 mph    
Visibility 8 miles    
Events Snow    
T = Trace of Precipitation, MM = Missing Value Source: NWS Daily Summary

Daily Weather History Graph

Daily Weather History Graph

Search for Another Location

Airport or City:

Trip Planner

Search our weather history database for the weather conditions in past years. The results will help you decide how hot, cold, wet, or windy it might be!

Date:

Astronomy

Nov. 13, 2013 Rise Set
Actual Time 7:01 AM EST 4:55 PM EST
Civil Twilight 6:32 AM EST 5:25 PM EST
Nautical Twilight 5:58 AM EST 5:58 PM EST
Astronomical Twilight 5:25 AM EST 6:31 PM EST
Moon 2:44 PM EST (11/13) 2:49 AM EST (11/13)
Length of Visible Light 10h 53m
Length of Day
9h 53m
Waxing Gibbous, 84% of the Moon is Illuminated
Nov 13
Waxing Gibbous
Nov 17
Full
Nov 25
Last Quarter
Dec 2
New
Dec 9
First Quarter

Hourly Weather History & Observations

Time (EST) Temp. Windchill Dew Point Humidity Pressure Visibility Wind Dir Wind Speed Gust Speed Precip Events Conditions
12:53 AM 21.9 °F 11.7 °F 17.1 °F 82% 30.38 in 6.0 mi NW 9.2 mph - 0.00 in Snow Light Snow
1:46 AM 21.9 °F 11.7 °F 15.1 °F 75% 30.31 in 7.0 mi NW 9.2 mph - 0.00 in Snow Light Snow
1:53 AM 21.0 °F 9.9 °F 14.0 °F 74% 30.39 in 9.0 mi NW 10.4 mph - 0.00 in   Mostly Cloudy
2:04 AM 19.9 °F 8.6 °F 12.9 °F 74% 30.31 in 10.0 mi NW 10.4 mph - N/A   Mostly Cloudy
2:14 AM 21.0 °F 9.9 °F 14.0 °F 74% 30.31 in 10.0 mi NW 10.4 mph - N/A   Mostly Cloudy
2:45 AM 21.0 °F 9.3 °F 14.0 °F 74% 30.31 in 10.0 mi NW 11.5 mph - N/A   Overcast
2:53 AM 21.0 °F 9.9 °F 14.0 °F 74% 30.39 in 9.0 mi NNW 10.4 mph - N/A   Overcast
3:53 AM 21.0 °F 11.4 °F 16.0 °F 81% 30.40 in 4.0 mi NW 8.1 mph - 0.00 in Snow Light Snow
4:53 AM 21.9 °F 14.5 °F 17.1 °F 82% 30.40 in 7.0 mi WNW 5.8 mph - 0.00 in Snow Light Snow
5:01 AM 21.9 °F 15.7 °F 17.1 °F 82% 30.32 in 7.0 mi West 4.6 mph - 0.00 in Snow Light Snow
5:23 AM 21.9 °F 15.7 °F 17.1 °F 82% 30.32 in 9.0 mi WNW 4.6 mph - 0.00 in   Overcast
5:33 AM 21.9 °F 13.4 °F 17.1 °F 82% 30.32 in 7.0 mi WNW 6.9 mph - 0.00 in Snow Light Snow
5:41 AM 21.9 °F 14.5 °F 18.0 °F 85% 30.32 in 8.0 mi WNW 5.8 mph - 0.00 in   Overcast
5:53 AM 21.9 °F 14.5 °F 18.0 °F 85% 30.41 in 3.0 mi WNW 5.8 mph - 0.00 in Snow Light Snow
6:03 AM 21.9 °F 14.5 °F 18.0 °F 85% 30.32 in 2.5 mi WNW 5.8 mph - 0.00 in Snow Light Snow
6:12 AM 21.9 °F 15.7 °F 18.0 °F 85% 30.33 in 2.5 mi WNW 4.6 mph - 0.00 in Snow Light Snow
6:30 AM 21.9 °F 15.7 °F 18.0 °F 85% 30.33 in 3.0 mi West 4.6 mph - 0.00 in Snow Light Snow
6:39 AM 21.9 °F 15.7 °F 18.0 °F 85% 30.33 in 1.8 mi West 4.6 mph - 0.00 in Snow Light Snow
6:50 AM 21.2 °F 16.4 °F 17.6 °F 86% 30.33 in 2.5 mi West 3.5 mph - 0.00 in Snow Light Snow
6:53 AM 21.9 °F 15.7 °F 18.0 °F 85% 30.41 in 2.0 mi West 4.6 mph - 0.00 in Snow Light Snow
7:13 AM 23.0 °F 17.0 °F 19.0 °F 85% 30.33 in 4.0 mi West 4.6 mph - 0.00 in Snow Light Snow
7:32 AM 23.0 °F 15.8 °F 19.0 °F 85% 30.34 in 2.5 mi West 5.8 mph - 0.00 in Snow Light Snow
7:41 AM 23.0 °F 18.4 °F 19.0 °F 85% 30.34 in 5.0 mi West 3.5 mph - 0.00 in Snow Light Snow
7:53 AM 23.0 °F 17.0 °F 19.0 °F 85% 30.42 in 3.0 mi Variable 4.6 mph - 0.00 in Snow Light Snow
8:53 AM 24.1 °F 18.2 °F 19.9 °F 84% 30.43 in 6.0 mi West 4.6 mph - 0.00 in Snow Light Snow
9:04 AM 24.1 °F 18.2 °F 19.9 °F 84% 30.35 in 7.0 mi West 4.6 mph - 0.00 in Snow Light Snow
9:27 AM 25.0 °F 17.1 °F 19.0 °F 78% 30.35 in 10.0 mi WNW 6.9 mph - 0.00 in   Overcast
9:40 AM 26.1 °F 16.2 °F 19.9 °F 78% 30.36 in 9.0 mi WNW 10.4 mph - 0.00 in   Overcast
9:53 AM 26.1 °F 18.4 °F 19.9 °F 78% 30.45 in 10.0 mi Variable 6.9 mph - 0.00 in   Overcast
10:11 AM 26.1 °F 17.6 °F 19.0 °F 75% 30.36 in 9.0 mi West 8.1 mph - N/A   Overcast
10:53 AM 27.0 °F 18.7 °F 21.0 °F 78% 30.44 in 7.0 mi West 8.1 mph - 0.00 in Snow Light Snow
11:53 AM 27.0 °F 18.0 °F 19.9 °F 75% 30.42 in 10.0 mi West 9.2 mph - 0.00 in   Overcast
12:53 PM 28.0 °F 17.5 °F 17.1 °F 63% 30.40 in 10.0 mi West 12.7 mph 18.4 mph N/A   Overcast
1:33 PM 28.9 °F 19.2 °F 16.0 °F 58% 30.32 in 10.0 mi West 11.5 mph - N/A   Mostly Cloudy
1:53 PM 28.9 °F 18.2 °F 16.0 °F 58% 30.39 in 10.0 mi West 13.8 mph 19.6 mph N/A   Mostly Cloudy
2:12 PM 28.9 °F 19.2 °F 16.0 °F 58% 30.30 in 10.0 mi West 11.5 mph 19.6 mph N/A   Mostly Cloudy
2:45 PM 28.9 °F 21.1 °F 16.0 °F 58% 30.29 in 10.0 mi WSW 8.1 mph 16.1 mph N/A   Scattered Clouds
2:53 PM 30.0 °F 20.0 °F 16.0 °F 56% 30.36 in 10.0 mi West 12.7 mph 18.4 mph N/A   Mostly Cloudy
3:01 PM 28.9 °F 19.8 °F 16.0 °F 58% 30.28 in 10.0 mi West 10.4 mph 18.4 mph N/A   Partly Cloudy
3:53 PM 28.9 °F 21.1 °F 16.0 °F 58% 30.36 in 10.0 mi West 8.1 mph - N/A   Clear
4:53 PM 28.9 °F 21.9 °F 16.0 °F 58% 30.35 in 10.0 mi SW 6.9 mph - N/A   Clear
5:53 PM 28.0 °F 22.8 °F 15.1 °F 58% 30.34 in 10.0 mi SW 4.6 mph - N/A   Clear
6:53 PM 28.0 °F 18.6 °F 15.1 °F 58% 30.34 in 10.0 mi WSW 10.4 mph 17.3 mph N/A   Clear
7:53 PM 27.0 °F 18.7 °F 15.1 °F 61% 30.32 in 10.0 mi WSW 8.1 mph 18.4 mph N/A   Clear
8:53 PM 27.0 °F 16.7 °F 16.0 °F 63% 30.31 in 10.0 mi SW 11.5 mph 18.4 mph N/A   Clear
9:53 PM 27.0 °F 18.0 °F 16.0 °F 63% 30.29 in 10.0 mi WSW 9.2 mph - N/A   Clear
10:53 PM 26.1 °F 16.8 °F 15.1 °F 63% 30.27 in 10.0 mi SW 9.2 mph 17.3 mph N/A   Clear
11:53 PM 26.1 °F 18.4 °F 14.0 °F 60% 30.24 in 10.0 mi WSW 6.9 mph 17.3 mph N/A   Clear